Flag for U.S.A. Weather past 2 weeks in Fort Lauderdale, Florida, U.S.A.

Now
84 °F

Partly sunny.


Feels Like: 93 °F
Forecast: 81 / 88 °F
Wind: 7 mph from South

Location: Fort Lauderdale / Hollywood International Airport

Current Time: Aug 2, 2015 at 8:50:55 AM

Latest Report: Aug 2, 2015 at 7:53 AM


Visibility: 10 mi

Pressure: 29.95 "Hg

Humidity: 77%

Dew point: 76 °F

Location of Fort LauderdaleLocation

Historic Weather in Fort Lauderdale — Graph

°F

Fort Lauderdale temperature yesterday

Maximum temperature yesterday: 91 °F (at 12:53 PM)
Minimum temperature yesterday: 76 °F (at 6:53 AM)
Average temperature yesterday: 83 °F

Past Weeks' High & Low Weather Summary

 TemperatureHumidityPressure
High95 °F (Jul 24, 2:53 PM)100% (Jul 25, 7:53 PM)30.09 "Hg (Jul 25, 7:53 PM)
Low76 °F (Jul 22, 5:01 PM)44% (Jul 24, 2:53 PM)29.88 "Hg (Jul 26, 4:53 AM)
Average84 °F75%29.99 "Hg
* Reported Jul 18 7:53 AM — Aug 2 7:53 AM, Fort Lauderdale, Weather by CustomWeather, © 2015

Note: Actual official high and low records may vary slightly from our data, if they occured in-between our weather recording intervals... More about our weather records

Advertising

Fort Lauderdale weather history for previous 24 hours

 ConditionsComfort  
Time TempWeatherWind HumidityBarometerVisibility
7:53 AM
Sun, Aug 2
84 °FPartly sunny.7 mph77%29.95 "Hg10 mi
6:53 AM83 °FPassing clouds.5 mph74%29.94 "Hg10 mi
5:53 AM83 °FPartly cloudy.12 mph79%29.94 "Hg10 mi
4:53 AM82 °FPartly cloudy.3 mph85%29.94 "Hg10 mi
3:53 AM82 °FPartly cloudy.8 mph85%29.94 "Hg10 mi
2:53 AM82 °FPartly cloudy.14 mph82%29.96 "Hg10 mi
1:53 AM84 °FPartly cloudy.5 mph80%29.98 "Hg10 mi
12:53 AM84 °FPassing clouds.8 mph77%29.99 "Hg10 mi
11:53 PM
Sat, Aug 1
85 °FPassing clouds.6 mph75%29.99 "Hg10 mi
10:53 PM86 °FMostly cloudy.6 mph72%30.00 "Hg10 mi
9:53 PM83 °FMostly cloudy.No wind77%29.99 "Hg10 mi
8:53 PM81 °FLight rain. More clouds than sun.8 mph77%29.96 "Hg10 mi
7:53 PM78 °FLight rain. Mostly cloudy.3 mph76%29.96 "Hg9 mi
6:53 PM82 °FLight rain. Cloudy.14 mph63%29.96 "Hg10 mi
5:53 PM89 °FBroken clouds.8 mph57%29.94 "Hg10 mi
4:53 PM89 °FCloudy.14 mph61%29.94 "Hg10 mi
3:53 PM90 °FPartly sunny.15 mph54%29.95 "Hg10 mi
2:53 PM91 °FBroken clouds.14 mph57%29.96 "Hg10 mi
1:53 PM90 °FBroken clouds.15 mph61%29.99 "Hg10 mi
12:53 PM91 °FBroken clouds.10 mph60%30.00 "Hg10 mi
11:53 AM90 °FBroken clouds.16 mph56%30.00 "Hg10 mi
10:53 AM88 °FBroken clouds.15 mph70%30.00 "Hg10 mi
9:53 AM85 °FMostly cloudy.No wind77%29.99 "Hg10 mi
8:53 AM81 °FPartly sunny.6 mph79%30.00 "Hg10 mi
Weather by CustomWeather, © 2015

See weather overviewHow to use our weather pages